Location: Park Creek Village Mobile Home Park
(38.2885°N, 122.4714°W)
Time: 16:30:43
(UTC+00:00)

Cosmos 1733 Rocket - Pass Details

Date: 14 December 2019
Orbit: 604 x 627 km, 82.5° (Epoch: 27 January)

Event Time Altitude Azimuth Distance (km) Brightness Sun altitude
Rises 13:32:44 0° 179° (S) 2,843 6.7 -20.1°
Reaches altitude 10° 13:34:56 10° 176° (S) 1,943 5.8 -19.7°
Maximum altitude 13:39:11 66° 95° (E) 664 3.4 -18.9°
Drops below altitude 10° 13:43:29 10° 13° (NNE) 1,961 5.6 -18.1°
Sets 13:45:44 0° 11° (N) 2,872 6.4 -17.6°
